EST,Max TemperatureF,Mean TemperatureF,Min TemperatureF,Max Dew PointF,MeanDew PointF,Min DewpointF,Max Humidity, Mean Humidity, Min Humidity, Max Sea Level PressureIn, Mean Sea Level PressureIn, Min Sea Level PressureIn, Max VisibilityMiles, Mean VisibilityMiles, Min VisibilityMiles, Max Wind SpeedMPH, Mean Wind SpeedMPH, Max Gust SpeedMPH,PrecipitationIn, CloudCover, Events, WindDirDegrees
2014-2-1,38,32,26,24,20,16,75,58,40,30.25,30.12,29.92,10,10,10,20,8,29,0.02,5,Rain,177
2014-2-2,38,32,26,31,28,21,92,76,59,30.17,29.98,29.88,10,7,1,14,7,20,T,8,Snow,307
2014-2-3,26,21,15,21,16,10,88,78,67,30.35,30.20,30.08,10,10,9,14,8,18,0.01,8,,4
2014-2-4,25,19,13,14,11,9,88,72,55,30.46,30.37,30.22,10,10,7,12,3,13,0.00,4,,6
2014-2-5,24,19,13,22,19,9,100,84,68,30.21,29.82,29.59,10,2,0,20,9,25,1.29,8,Fog-Snow,25
2014-2-6,19,12,5,9,6,1,92,74,56,30.30,30.21,30.02,10,9,4,20,5,24,T,5,Snow,288
2014-2-7,21,14,7,8,4,-3,91,66,41,30.27,30.23,30.14,10,10,10,15,8,20,0.00,3,,251
2014-2-8,18,11,3,0,-3,-7,66,54,42,30.31,30.24,30.16,10,10,10,12,5,16,0.00,2,,270
2014-2-9,17,12,6,16,10,0,92,75,58,30.17,30.00,29.86,10,4,0,14,5,18,0.17,6,Fog-Snow,203
2014-2-10,18,13,7,10,7,1,88,77,66,30.27,30.10,29.93,10,6,1,15,8,22,T,6,Snow,298
2014-2-11,14,8,1,5,2,-2,95,78,61,30.49,30.35,30.26,10,8,2,15,6,18,T,5,Snow,309
2014-2-12,21,9,-3,3,0,-4,95,66,36,30.52,30.39,30.17,10,10,7,14,6,21,0.00,1,,154
2014-2-13,27,21,15,25,20,5,96,78,59,30.23,29.65,29.23,10,3,0,22,12,28,0.49,8,Fog-Snow,27
2014-2-14,31,26,20,21,19,17,92,78,63,29.73,29.42,29.18,10,7,0,22,13,31,0.14,8,Fog-Snow,289
2014-2-15,27,21,15,23,19,10,92,80,68,29.86,29.74,29.66,10,3,0,21,9,29,0.11,8,Fog-Snow,343
2014-2-16,15,11,7,10,7,3,92,77,61,30.17,29.93,29.80,10,5,1,18,8,28,0.03,8,Snow,301
2014-2-17,24,13,2,7,2,-1,91,65,39,30.43,30.28,30.08,10,10,5,20,7,25,T,2,Snow,329
2014-2-18,31,26,20,25,18,1,96,68,39,30.09,29.93,29.83,10,5,0,25,11,38,0.04,7,Fog-Snow,198
2014-2-19,38,30,21,36,28,17,89,75,61,30.07,29.80,29.60,10,8,0,20,10,26,0.06,6,Fog-Rain-Snow,209
2014-2-20,42,34,26,31,25,19,89,64,39,30.19,30.08,29.88,10,10,5,18,9,25,0.11,3,Rain,189
2014-2-21,46,41,35,45,36,19,100,78,56,29.84,29.71,29.57,10,6,0,23,11,30,0.27,6,Fog-Rain,194
2014-2-22,45,38,31,23,18,14,52,43,33,29.97,29.89,29.85,10,10,10,31,14,41,0.00,2,,245
2014-2-23,42,34,26,27,22,11,75,55,34,29.98,29.92,29.86,10,10,10,17,8,28,0.00,5,,257
2014-2-24,26,20,14,16,10,4,84,67,50,30.06,29.92,29.83,10,6,0,20,11,29,T,7,Fog-Snow,296
2014-2-25,19,16,12,10,7,4,92,71,49,30.04,29.97,29.90,10,8,1,18,8,25,T,7,Snow,281
2014-2-26,15,10,5,9,0,-8,84,62,40,29.93,29.85,29.74,10,9,1,24,8,30,T,6,Snow,273
2014-2-27,19,10,0,12,-1,-14,67,51,35,30.06,29.67,29.48,10,7,0,30,14,40,T,7,Fog-Snow,256
2014-2-28,15,6,-4,-3,-8,-12,71,56,40,30.36,30.28,30.09,10,10,10,16,6,22,0.00,1,,249